DW9572 Weather Reports


time (UTC)temp
C
wind
direction
speed
KPH
gust
KPH
rain 1hr
cm
rain 24hr
cm
rain mn
cm
humidity
%
barometer
mb
20260502163040 22 48 20.9 33.8 0.00 0.00 0.00 36 1013.5
20260502161510 21 75 16.1 27.4 0.00 0.00 0.00 37 1013.5
20260502151518 21 41 17.7 25.7 0.00 0.00 0.00 38 1013.5
20260502123111 16 51 6.4 12.9 0.00 0.00 0.00 48 1012.8
20260502121554 11 82 11.3 12.9 0.00 0.00 0.00 71 1012.7
20260502114543 15 124 0.0 3.2 0.00 0.00 0.00 52 1012.9
20260502113049 17 11 9.7 17.7 0.00 0.00 0.00 44 1012.6
20260502111544 17 63 8.0 12.9 0.00 0.00 0.00 44 1012.5
20260502110042 15 39 11.3 12.9 0.00 0.00 0.00 50 1012.6
20260502104522 15 60 1.6 4.8 0.00 0.00 0.00 56 1012.7
20260502103021 12 300 3.2 11.3 0.00 0.00 0.00 68 1012.8
20260502101511 12 276 3.2 6.4 0.00 0.00 0.00 65 1012.7
20260502091508 20 26 11.3 22.5 0.00 0.00 0.00 35 1012.4
20260502071505 20 360 11.3 22.5 0.00 0.00 0.00 39 1012.6
20260502070005 20 4 14.5 19.3 0.00 0.00 0.00 38 1012.5
20260502064555 20 357 14.5 19.3 0.00 0.00 0.00 37 1012.5
20260502063053 21 358 12.9 20.9 0.00 0.00 0.00 37 1012.6
20260502061553 20 356 19.3 22.5 0.00 0.00 0.00 37 1012.6
20260502060054 20 350 20.9 24.1 0.00 0.00 0.00 39 1012.6
20260502054551 20 350 19.3 24.1 0.00 0.00 0.00 39 1012.5
20260502053056 20 350 20.9 24.1 0.00 0.00 0.00 40 1012.4
20260502051600 20 354 20.9 24.1 0.00 0.00 0.00 40 1012.4
20260502050051 20 349 20.9 24.1 0.00 0.00 0.00 39 1012.4
20260502044535 20 352 19.3 22.5 0.00 0.00 0.00 39 1012.4
20260502043037 21 352 20.9 24.1 0.00 0.00 0.00 38 1012.4
20260502041512 20 357 19.3 20.9 0.00 0.00 0.00 40 1012.4
20260502040011 20 355 19.3 22.5 0.00 0.00 0.00 40 1012.2
20260502034553 20 352 20.9 22.5 0.00 0.00 0.00 40 1012.1
20260502033053 20 348 20.9 22.5 0.00 0.00 0.00 40 1012.0
20260502031535 21 349 19.3 20.9 0.00 0.00 0.00 40 1011.9
20260502030039 21 347 17.7 19.3 0.00 0.00 0.00 40 1011.7
20260502024525 22 352 16.1 17.7 0.00 0.00 0.00 39 1011.7
20260502023019 24 11 11.3 16.1 0.00 0.00 0.00 33 1011.6
20260502021601 25 23 9.7 12.9 0.00 0.00 0.00 32 1011.5
20260502020058 25 11 9.7 12.9 0.00 0.00 0.00 33 1011.7
20260502014540 25 27 9.7 11.3 0.00 0.00 0.00 32 1011.7
20260502013040 25 8 8.0 9.7 0.00 0.00 0.00 32 1012.0
20260502011517 25 37 8.0 9.7 0.00 0.00 0.00 30 1012.0
20260502010025 26 49 6.4 8.0 0.00 0.00 0.00 27 1012.1
20260502004602 26 68 8.0 12.9 0.00 0.00 0.00 26 1012.2
20260502003056 26 91 9.7 14.5 0.00 0.00 0.00 24 1012.4
20260502001546 26 91 11.3 14.5 0.00 0.00 0.00 24 1012.5
20260502000037 26 43 11.3 16.1 0.00 0.00 0.00 25 1012.6
20260501234515 26 93 14.5 17.7 0.00 0.00 0.00 25 1012.8
20260501233014 26 45 9.7 17.7 0.00 0.00 0.00 26 1012.7
20260501231557 26 91 9.7 14.5 0.00 0.00 0.00 26 1012.9
20260501230101 26 82 12.9 20.9 0.00 0.00 0.00 26 1013.1
20260501224536 26 97 9.7 12.9 0.00 0.00 0.00 25 1013.3
20260501223029 26 82 9.7 19.3 0.00 0.00 0.00 25 1013.6
20260501221512 26 91 11.3 20.9 0.00 0.00 0.00 26 1013.8
20260501220012 26 9 1.6 24.1 0.00 0.00 0.00 25 1014.0
20260501214551 26 90 16.1 19.3 0.00 0.00 0.00 25 1014.3
20260501213044 25 111 14.5 20.9 0.00 0.00 0.00 25 1014.5
20260501211523 25 93 17.7 20.9 0.00 0.00 0.00 25 1014.7
20260501210022 25 113 14.5 22.5 0.00 0.00 0.00 25 1015.1
20260501204505 25 148 11.3 20.9 0.00 0.00 0.00 25 1015.3
20260501203105 24 93 14.5 22.5 0.00 0.00 0.00 25 1015.4
20260501201600 24 63 11.3 17.7 0.00 0.00 0.00 23 1015.7
20260501200039 23 67 6.4 16.1 0.00 0.00 0.00 28 1015.8
20260501194538 23 97 11.3 17.7 0.00 0.00 0.00 27 1016.0
20260501193015 23 92 16.1 20.9 0.00 0.00 0.00 29 1016.1
20260501191512 22 108 8.0 17.7 0.00 0.00 0.00 30 1016.4
20260501190054 22 85 8.0 14.5 0.00 0.00 0.00 31 1016.5
20260501184550 21 115 4.8 22.5 0.00 0.00 0.00 33 1016.6
20260501183026 21 77 14.5 17.7 0.00 0.00 0.00 35 1016.7
20260501181527 21 60 12.9 19.3 0.00 0.00 0.00 35 1016.8
20260501180006 20 65 11.3 19.3 0.00 0.00 0.00 37 1016.9
20260501174600 20 46 9.7 17.7 0.00 0.00 0.00 39 1017.0
20260501173101 19 72 14.5 22.5 0.00 0.00 0.00 41 1017.1
20260501171538 18 94 8.0 20.9 0.00 0.00 0.00 42 1017.1
20260501170016 18 84 6.4 16.1 0.00 0.00 0.00 45 1017.2
20260501164513 17 89 11.3 17.7 0.00 0.00 0.00 46 1017.2